Weather in Kalchyk

Ukraine / Donetsk Region     47°18′26″N   37°35′59″E
temp.,
°C
wind,
m/s
gust,
m/s
humid.,
%
clouds,
%
prec.,
mm/h
press.,
hPa
HPBL,
m
11 may, tue
tue1100:00+9wnw81483100 1.6 10121081
03:00+9nw71292100 2.4 1010818
06:00+9n51086100 0.1 1010914
09:00+9nne5886100 0.3 1011813
12:00+11ne6860100 0.1 10111522
15:00+13nne685358 0.4 10111727
18:00+10nne6778100 0.6 1013778
21:00+8ne348472 0.8 1013287
12 may, wed
wed1200:00+6ne228776 0.0 101384
03:00+5ne239458 0.0 101457
06:00+6ene349698 0.2 1014126
09:00+12sse567099 0.9 1014893
12:00+13sse686017 1.0 10141452
15:00+14sse91068100 1.2 10141358
18:00+12sse597993 0.9 1015875
21:00+11sse3690100 1.1 1015236
13 may, thu
thu1300:00+11e2393100 0.0 101472
03:00+10ne22935 0.0 101423
06:00+10ne34935 0.0 101498
09:00+17ese357346 0.0 1014564
12:00+21se44538 0.0 10131066
15:00+23ese4547100 0.0 10131146
18:00+21ese4761100 0.0 1012732
21:00+17e3580100 0.0 101289
14 may, fri
fri1400:00+16e499110 0.0 1011157
03:00+15e411930 0.0 1011216
06:00+15e4109150 0.0 1011239
09:00+21se686019 0.0 1011480
12:00+25se565329 0.0 1010615
15:00+26sse565099 0.0 1010872
18:00+25s345598 0.0 1010425
21:00+19sw22615 0.0 101022
15 may, sat
sat1500:00+16w226970 0.3 101014
03:00+16wnw2367100 0.6 101149
06:00+15nw238019 0.0 101272
09:00+21wnw12570 0.0 1013419
12:00+25sw344190 0.0 10131593
15:00+25ssw544280 0.0 10131855
18:00+22ssw4654100 0.0 1013299
21:00+17wsw2268100 0.0 101324